TimeEST,TemperatureF,Dew PointF,Humidity,Sea Level PressureIn,VisibilityMPH,Wind Direction,Wind SpeedMPH,Gust SpeedMPH,PrecipitationIn,Events,Conditions,WindDirDegrees,DateUTC
12:51 AM,48.9,24.1,38,30.04,10.0,South,9.2,-,N/A,,Clear,190,2013-12-20 05:51:00
1:51 AM,50.0,23.0,35,30.04,10.0,SSW,6.9,-,N/A,,Scattered Clouds,200,2013-12-20 06:51:00
2:51 AM,51.1,23.0,33,30.04,10.0,South,9.2,-,N/A,,Scattered Clouds,180,2013-12-20 07:51:00
3:51 AM,50.0,23.0,35,30.05,10.0,South,8.1,-,N/A,,Partly Cloudy,190,2013-12-20 08:51:00
4:51 AM,51.1,23.0,33,30.04,10.0,SSW,6.9,-,N/A,,Mostly Cloudy,200,2013-12-20 09:51:00
5:51 AM,51.1,24.1,35,30.02,10.0,South,9.2,-,N/A,,Scattered Clouds,190,2013-12-20 10:51:00
6:51 AM,51.1,25.0,36,30.02,10.0,SSW,5.8,-,N/A,,Overcast,200,2013-12-20 11:51:00
7:51 AM,53.1,25.0,34,30.02,10.0,SSW,10.4,-,N/A,,Overcast,200,2013-12-20 12:51:00
8:51 AM,54.0,25.0,33,30.01,10.0,South,11.5,-,N/A,,Mostly Cloudy,190,2013-12-20 13:51:00
9:51 AM,55.9,26.1,32,30.02,10.0,South,11.5,-,N/A,,Overcast,190,2013-12-20 14:51:00
10:51 AM,59.0,30.0,33,30.03,10.0,South,15.0,18.4,0.00,Rain,Light Rain,190,2013-12-20 15:51:00
11:51 AM,60.1,34.0,38,30.00,10.0,South,9.2,-,0.00,,Overcast,180,2013-12-20 16:51:00
12:51 PM,57.9,45.0,62,29.97,8.0,SSW,10.4,20.7,0.00,Rain,Light Rain,210,2013-12-20 17:51:00
1:51 PM,55.9,48.0,75,29.96,7.0,South,11.5,17.3,0.00,Rain,Light Rain,190,2013-12-20 18:51:00
2:51 PM,55.0,48.9,80,29.95,10.0,SSE,4.6,-,0.01,,Mostly Cloudy,160,2013-12-20 19:51:00
3:51 PM,57.9,48.0,70,29.93,10.0,South,5.8,-,N/A,,Overcast,180,2013-12-20 20:51:00
4:51 PM,59.0,48.0,67,29.94,10.0,South,6.9,-,N/A,,Overcast,190,2013-12-20 21:51:00
5:51 PM,61.0,48.0,62,29.95,10.0,South,8.1,-,0.00,,Overcast,190,2013-12-20 22:51:00
6:51 PM,62.1,46.9,58,29.95,10.0,SSW,8.1,-,N/A,,Mostly Cloudy,200,2013-12-20 23:51:00
7:51 PM,62.1,48.9,62,29.96,10.0,SSW,9.2,-,N/A,,Overcast,200,2013-12-21 00:51:00
8:51 PM,62.1,50.0,65,29.96,10.0,SSW,9.2,20.7,N/A,,Overcast,200,2013-12-21 01:51:00
9:51 PM,62.1,50.0,65,29.96,10.0,SSW,10.4,17.3,N/A,,Overcast,210,2013-12-21 02:51:00
10:51 PM,61.0,50.0,67,29.94,10.0,SSW,5.8,-,N/A,,Mostly Cloudy,200,2013-12-21 03:51:00
11:51 PM,61.0,50.0,67,29.94,10.0,South,6.9,-,N/A,,Overcast,190,2013-12-21 04:51:00